Tracking 19709 objects as of 19-Jun-2019
HD Live streaming from Space Station
objects crossing your sky now

SL-12 R/B(2)

Track SL-12 R/B(2) now!


NORAD ID: 25598
Int'l Code: 1998-077F
Perigee: 19,083.3 km
Apogee: 19,142.0 km
Inclination: 63.3 °
Period: 674.8 minutes
Semi major axis: 25483 km
RCS: 0.5799 m2 (medium)
Launch date: December 30, 1998
Source: Commonwealth of Independent States (former USSR) (CIS)
Launch site: TYURATAM MISSILE AND SPACE COMPLEX (TTMTR)

Note: This is a ROCKET BODY
aabbcc
Your satellite tracking list
Your tracking list is empty




NASA's NSSDC Master Catalog

Two Line Element Set (TLE):
1 25598U 98077F   19169.32727866 +.00000024 +00000-0 +00000-0 0  9993
2 25598 063.3013 149.8842 0011509 267.9645 172.9732 02.13407602159447
Source of the keplerian elements: AFSPC